Regional Weather Roundup
Issued by NWS Charleston, SC

Current Version | Previous Version | Text Only | Print | Product List | Glossary Off
Versions: 1 2 3 4 5 6 7 8 9 10 11 12 13 14 15 16 17 18 19 20 21 22 23 24 25 26 27 28 29 30 31 32 33 34 35 36 37 38 39 40 41 42 43 44 45 46 47 48 49 50

000
ASUS42 KCHS 302113
RWRCHS

REGIONAL WEATHER ROUNDUP
NATIONAL WEATHER SERVICE CHARLESTON SC
500 PM EDT MON MAY 30 2016

NOTE: "FAIR" INDICATES FEW OR NO CLOUDS BELOW 12,000 FEET WITH NO
SIGNIFICANT WEATHER AND/OR OBSTRUCTIONS TO VISIBILITY.

NOT ALL STATIONS ARE QUALITY CONTROLLED. USE DATA WITH CAUTION...
ESPECIALLY DEWPOINT OBSERVATIONS.

SCZ027-030-031-034>040-042>050-302200-
...SOUTHEAST SOUTH CAROLINA...

CITY           SKY/WX    TMP DP  RH WIND       PRES   REMARKS
N CHARLESTON   CLOUDY    76  70  82 W9        29.86F
WATERFRONT PRK   N/A     75  71  87 NW6       29.85F
MOUNT PLEASANT MOCLDY    77  72  83 W7        29.86F
JOHNS ISLAND   MOCLDY    81  72  74 W13       29.87F
PINOPOLIS      NOT AVBL
MONCKS CORNER  LGT RAIN  70  68  94 NW3       29.86F
SUMMERVILLE    CLOUDY    75  72  88 NW8       29.88S
BEAUFORT MCAS  CLOUDY    80  71  74 N8        29.89F
BEAUFORT ARPT  FAIR      77  68  73 N9        29.89F
HILTON HEAD IS MOSUNNY   84  72  65 N14       29.90S
WALTERBORO     CLOUDY    77  73  88 NW7       29.90F
ALLENDALE      FAIR      84  68  58 VRB5      29.88S

...SOUTHERN MIDLANDS AND PEE DEE...

CITY           SKY/WX    TMP DP  RH WIND       PRES   REMARKS
GEORGETOWN     CLOUDY    73  72  94 SE7       29.86F
KINGSTREE      DRIZZLE   72  68  88 CALM      29.87R
ORANGEBURG     LGT RAIN  75  71  87 NW3       29.89F
BARNWELL       FAIR      88  73  62 NW3       29.89S HX  96
AIKEN          FAIR      82  66  57 N8        29.93F
MANNING        CLOUDY    72  70  94 N7        29.87S FOG
COLUMBIA       PTSUNNY   86  66  51 VRB6      29.87F
SUMTER         LGT RAIN  74  70  88 N12       29.87R
FLORENCE       CLOUDY    76  71  85 NW6       29.87S
MYRTLE BEACH   PTSUNNY   79  64  61 S12       29.89F
N MYRTLE BEACH PTSUNNY   78  70  76 SE10      29.87F

$$

GAZ063-065-086>088-099>101-113>116-118-119-134>141-150-302200-
...SOUTHEAST GEORGIA...

CITY           SKY/WX    TMP DP  RH WIND       PRES   REMARKS
SAVANNAH ARPT  PTSUNNY   87  66  49 NW14      29.89S
HUNTER AAF     MOSUNNY   86  71  60 NW9       29.87R HX  91
FORT STEWART   SUNNY     90  63  40 N7        29.86F HX  91
STATESBORO     MOSUNNY   87  69  56 N10       29.90S HX  91
SYLVANIA       CLEAR     88  69  54 NW8       29.90F HX  92
CLAXTON        FAIR      89  67  47 NW6       29.90S HX  92

...CSRA...CENTRAL AND FAR SOUTHEAST GEORGIA...

CITY           SKY/WX    TMP DP  RH WIND       PRES   REMARKS
THOMSON        SUNNY     91  66  43 NW6       29.95F HX  93
AUGUSTA-BUSH   MOSUNNY   88  63  43 N8        29.88F
AUGUSTA-DANIEL MOSUNNY   89  63  41 NW9       29.91F HX  90
SWAINSBORO     FAIR      90  63  40 N9        29.92S HX  90
VIDALIA        MOSUNNY   90  61  37 NW10      29.91S
EASTMAN        MOCLDY    92  60  34 N6        29.93F HX  92
HAZLEHURST     FAIR      93  58  31 NW9       29.89F HX  92
ALMA           MOSUNNY   92  62  36 NW6       29.89F HX  92
WAYCROSS       MOSUNNY   93  62  35 NW13      29.89S HX  94
JESUP          FAIR      88  59  37 N10G16    29.89S
BAXLEY         FAIR      91  61  35 N10       29.89F HX  91
BRUNSWICK      SUNNY     95  63  34 W8        29.89S HX  96
SAINT SIMONS   MOSUNNY   91  61  36 VRB3      29.87F HX  91

$$

SCZ027-028-034-036>038-045-046-048>050-GAZ119-141-302200-
...LAKE AND SUPPLEMENTAL COASTAL OBSERVATIONS...

STATION/POSITION TIME  TEMP    WIND        PRES    WAVE   SWELL
                       AIR SEA DIR/SP/G            HT/PER HT/PER/DIR
                 (UTC) (F)     (DEG/KT/KT) (MB)    (FT/S) (FT/S/D)
WINYAH BAY       1945   75     150/ 11     1010.0
LAKE MURRAY      2000   83     340/  1/  6 1011.5F
ACE BASIN NERRS  NOT AVBL
FORT PULASKI     2000   82 76  300/ 12/ 15 1012.3F
SAPELO ISLAND    2000   89     280/  8     1012.0F

$$

ANZ835-935-AMZ111-154-330-350-352-354-370-450-454-472-302200-
...C-MAN AND BUOY OBSERVATIONS...

STATION/POSITION TIME  TEMP    WIND        PRES    WAVE   SWELL
                       AIR SEA DIR/SP/G            HT/PER HT/PER/DIR
                 (UTC) (F)     (DEG/KT/KT) (MB)    (FT/S) (FT/S/D)
BUOY 41004       2050   73 78  220/ 12/ 14 1011.3F   4/ 8   3/ 8
BUOY 41008       2050   80 78  130/  4/  4 1012.0F   2/ 8   2/100/ 8
FOLLY BEACH CMAN 2000   76     290/  7/ 10 1011.9F
CAPERS NEARSHORE 2008   74 76  270/ 10/ 14 1011.2F
FRIPP NEARSHORE  2008   76 76  350/ 16/ 19 1011.3F


STATION/POSITION TIME  TEMP    WIND        PRES    WAVE   SWELL
                       AIR SEA DIR/SP/G            HT/PER HT/PER/DIR
                 (UTC) (F)     (DEG/KT/KT) (MB)    (FT/S) (FT/S/D)
5E ST. MARYS GA  2001      81                N/A     2/ 8
FRYING PAN BUOY  2000   78 78  170/ 12/ 16 1011.9F
BUOY 41025       2050   78 80  160/ 21/ 25 1013.7    7/ 8   2/280/19
CAPE LOOKOUT NC  2000   74      50/  4/  5 1013.5F
BUOY 41002       2050   76 76  180/ 10/ 12 1014.5F   6/ 8   5/100/ 8
BUOY 41010       2020   79 80  200/ 10/ 12 1014.2F
ST AUGUSTINE FL  2100   81 82  130/  9/ 10 1013.2F


$$




USA.gov is the U.S. government's official web portal to all federal, state and local government web resources and services.